Погода в Октябрьском

Россия / Архангельская область     61°05′21″N   43°10′21″E
темп.,
°C
ветер,
м/с
пор.,
м/с
влажн.,
%
обл.,
%
осадки,
мм/ч
давл.,
гПа
погр.,
м
3 августа, вт
вт300:00+16вюв31072100 0.0 1005191
03:00+17юв4128558 0.0 1003309
06:00+18юв51596100 1.7 1000516
09:00+21ю51288100 2.7 1000880
12:00+25юз6115680 0.1 10011731
15:00+21юз51061100 0.1 10041555
18:00+21юз485759 0.0 10041548
21:00+16ююв247397 0.0 100572
4 августа, ср
ср400:00+14юз29830 0.0 1006202
03:00+13ю310860 0.0 1007222
06:00+15юз310790 0.0 1008373
09:00+19зюз475913 0.0 10091183
12:00+19з4654100 0.0 10101753
15:00+21з56364 0.0 10112117
18:00+20зсз354433 0.0 10121777
21:00+13з27685 0.0 1013126
5 августа, чт
чт500:00+11з22710 0.0 101539
03:00+9сз23795 0.0 101642
06:00+11с25721 0.0 1018184
09:00+16сз24470 0.0 1019919
12:00+19сз35386 0.0 10182011
15:00+20зсз543694 0.0 10182166
18:00+17сз145682 0.0 1019215
21:00+12ссз116952 0.0 101911
6 августа, пт
пт600:00+12св1171100 0.0 102014
03:00+12всв2268100 0.0 102049
06:00+12вюв1268100 0.0 1021108
09:00+17вюв234787 0.0 1020725
12:00+20св223592 0.0 10202374
15:00+19в123898 0.0 10191720
18:00+16св2454100 0.0 1019149
21:00+14всв266479 0.0 1019164
7 августа, сб
сб700:00+12в117295 0.0 102022
03:00+9всв25855 0.0 102091
06:00+11всв27715 0.0 1021196
09:00+17всв344597 0.0 1020898
12:00+20в3435100 0.0 10201820
15:00+21в343321 0.0 10192029
18:00+19в2644100 0.0 1018456
21:00+13в2866100 0.0 1018129